Regional Weather Roundup
Issued by NWS

Home | Current Version | Previous Version | Text Only | Print | Product List | Glossary On
Versions: 1 2 3 4 5 6 7 8 9 10 11 12 13 14 15 16 17 18 19 20 21 22 23 24 25 26 27 28 29 30 31 32 33 34 35 36 37 38 39 40 41 42 43 44 45 46 47 48 49 50
000
ASUS44 KEWX 242003
RWRTX
SOUTH TEXAS REGIONAL WEATHER ROUNDUP
NATIONAL WEATHER SERVICE AUSTIN/SAN ANTONIO TX
300 PM CDT SAT JUN 24 2017

NOTE: "FAIR" INDICATED FEW OR NO CLOUDS BELOW 12,000 FEET WITH NO
SIGNIFICANT WEATHER AND/OR OBSTRUCTIONS TO VISIBILITY.

* - THESE STATIONS ARE NOT NWS OR FAA STATIONS...AND ARE NOT SUBJECT
    TO NWS AND FAA QUALITY CONTROL.

TXZ171-172-183>190-242100-
TEXAS HILL COUNTRY AND EDWARDS PLATEAU

CITY           SKY/WX    TMP DP  RH WIND       PRES   REMARKS
JUNCTION       PTSUNNY   76  67  73 SE7       30.15F
*LLANO         CLOUDY    75  72  88 SE7       30.11F
BURNET         CLOUDY    77  69  76 SE8       30.09F
*HORSESHOE BAY CLOUDY    76  71  83 MISG      30.09F
*KERRVILLE     CLOUDY    77  68  72 NE7       30.13F
*FREDERICKSBRG CLOUDY    73  66  79 S6        30.11F
*ROCKSPRINGS   PTSUNNY   79  66  65 E12G18    30.18F
*BOERNE STAGE  CLOUDY    77  63  61 E16       30.13S
*CASTROVILLE   CLOUDY    78  69  74 E10G21    30.07F
HONDO          CLOUDY    86  70  58 E17       30.07F HX  90
*UVALDE        CLOUDY    85  69  57 N15G25    30.06S
DEL RIO        LGT RAIN  87  71  58 N7        30.03F HX  93
LAUGHLIN AFB   NOT AVBL
CARRIZO SPRGS  PTSUNNY   95  68  41 E9G20     30.00F HX  99
*EAGLE PASS    MOCLDY    93  68  43 E8G14     30.02F HX  97
$$

TXZ173-191>194-202-209-217>225-228-242100-
CENTRAL AND SOUTH CENTRAL TEXAS

CITY           SKY/WX    TMP DP  RH WIND       PRES   REMARKS
GEORGETOWN     SUNNY     81  66  61 E7        30.09F
AUSTIN/BERGSTM CLOUDY    83  69  62 E13       30.09F
AUSTIN/MABRY   CLOUDY    84  68  58 E9        30.10F
*AUSTIN/EXEC     N/A     79  68  69 E13       30.11F
*LAGO VISTA    CLOUDY    78  67  69 E9        30.10F
SAN MARCOS     CLOUDY    81  84 100 NE15      30.12F HX  91
NEW BRAUNFELS  CLOUDY    82  68  62 E16       30.08F
RANDOLPH AFB   CLOUDY    82  69  66 E18G24    30.06F
PT SAN ANTONIO CLOUDY    75  73  91 E9        30.03F
SAN ANTONIO    CLOUDY    82  66  58 E16G28    30.06F
STINSON FIELD  CLOUDY    76  72  87 NE12      30.04F
*LA GRANGE     RAIN      75  73  96 CALM      30.09F
*GIDDINGS      DRIZZLE   75  71  87 SE5       30.12F
*GONZALES      RAIN      74  74 100 NE7       30.09F
$$

TXZ163>164-176>182-195>201-210>213-226-227-235-242100-
SOUTHEAST TEXAS

CITY           SKY/WX    TMP DP  RH WIND       PRES   REMARKS
COLLEGE STN    CLOUDY    81  69  67 NE6       30.08F
*BRYAN         CLOUDY    81  68  64 NE3       30.10F
*CALDWELL      NOT AVBL
*CROCKETT      CLOUDY    82  72  69 E5        30.11F
*BRENHAM       RAIN      74  73  96 CALM      30.11F
HUNTSVILLE     PTSUNNY   82  69  64 NE5       30.09F
CONROE         CLOUDY    78  74  87 VRB5      30.08F
HOUSTON BUSH   CLOUDY    82  75  79 NW9       30.06F
HOUSTON HOBBY  PTSUNNY   85  74  69 NW8       30.05F HX  92
*HOUSTON SW AP PTSUNNY   83  74  75 NW5       30.06F
PEARLAND       PTSUNNY   87  74  64 N6        30.06F HX  95
HOUSTON HOOKS  PTSUNNY   78  73  84 N9        30.07F
ELLINGTON FLD  PTSUNNY   86  75  70 N7        30.06F HX  95
SUGAR LAND     LGT RAIN  80  74  81 VRB6      30.06F
*HOUSTON EXEC  LGT RAIN  75  75 100 NW8       30.08F
*CLEVELAND MUN PTSUNNY   82  74  78 N8        30.07F
*WHARTON       CLOUDY    78  72  83 NW3       30.08F
*COLUMBUS      LGT RAIN  74  72  93 N8        30.10F
*EAGLE LAKE    CLOUDY    77  76  97 NW7       30.08F
$$

TXZ214>216-236>238-242100-
THE UPPER TEXAS COAST

CITY           SKY/WX    TMP DP  RH WIND       PRES   REMARKS
*ORANGE        CLOUDY    84  76  76 NW5       30.05F HX  93
PORT ARTHUR    CLOUDY    86  75  69 NW14G21   30.03F THUNDER HX  95
GALVESTON      CLOUDY    87  79  76 S9        30.05F HX 101
ANGLETON       CLOUDY    80  74  81 E6        30.06S
*BAY CITY      CLOUDY    83  76  79 CALM      30.06S HX  91
PALACIOS       CLOUDY    80  73  79 NE13      30.05F
$$

TXZ229>234-239>247-242100-
TEXAS COASTAL BEND AND RIO GRANDE PLAINS

CITY           SKY/WX    TMP DP  RH WIND       PRES   REMARKS
VICTORIA       CLOUDY    80  73  79 NE10      30.06F
*BEEVILLE      CLOUDY    80  80 100 NE13G21   30.07R
ROCKPORT       CLOUDY    81  71  71 N24G31    30.05R
*PORT ARANSAS  CLOUDY    88  76  66 SE9       30.03R HX  98
*PORT LAVACA   RAIN      76  76 100 CALM      30.07F
*INGLESIDE     CLOUDY    92  76  59 MISG      30.03R HX 104
CORPUS CHRISTI CLOUDY    92  76  59 NE13      30.02R THUNDER HX 104
CORPUS NAS     MOSUNNY   91  78  65 SE13      30.02S HX 106
*ROBSTOWN      TSTM      74  70  87 N20G32    30.07R VSB 1
ALICE          CLOUDY    80  66  62 NE12      30.03R THUNDER
KINGSVILLE NAS TSTM      83  77  82 N5        29.99F HX  92
COTULLA        PTSUNNY   86  70  58 E16G30    30.04R HX  90
*FAITH RANCH   SUNNY     97  64  34 E8G16     29.99F HX  99
LAREDO         NOT AVBL
$$

TXZ248>255-242100-
DEEP SOUTH TEXAS

CITY           SKY/WX    TMP DP  RH WIND       PRES   REMARKS
BROWNSVILLE    PTSUNNY   92  75  57 SE16G23   29.96F HX 103
PORT ISABEL    SUNNY     91  78  65 E20G25    29.96F HX 106
*SOUTH PADRE   NOT AVBL
HARLINGEN      PTSUNNY   97  76  50 E17G25    29.94F HX 110
*HEBBRONVILLE  PTSUNNY   90  66  44 S20G32    30.01R THUNDER HX  92
MCALLEN        SUNNY    101  72  39 E14       29.93F HX 110
*WESLACO       MOSUNNY   96  71  43 SE5       29.93F HX 104
FALFURRIAS     CLOUDY    83  76  79 NE8       29.98S HX  90
EDINBURG       PTSUNNY   98  69  39 E13G18    29.94F HX 103
*ZAPATA        MOSUNNY   99  64  31 E3        29.95F HX 101
$$

TXZ213>215-236>238-242>244-246-247-251-254-255-242100-
CMAN STATIONS

STATION/POSITION TIME  TEMP    WIND        PRES    WAVE
                       AIR SEA DIR/SP/G            HT/PER
                 (UTC) (F)     (DEG/KT/KT) (MB)    (FT/S)
SABINE PASS      1930   86 86  200/  7/ 13 1018.7
SEA RIM ST PARK  1900   84     200/  9/ 10 1018.1
NORTH JETTY/GLS  1930      85  140/  2/  3 1017.2
EAGLE POINT      1930   83 84  360/  9/ 12 1017.8
MORGANS POINT    1930   81 84  300/  7/  9 1017.9
MISSION/ARANSAS  1900          130/  7       N/A
PORT O`CONNOR    1930   83      10/  8/ 13 1017.3
PORT ARANSAS     1900   84 86  110/ 11/ 12 1016.8
MALAQUITE BEACH  1930   85 87  100/ 14/ 15 1015.6
BAFFIN BAY       1930   85 89              1015.9
PORT ISABEL      1930   88 86              1015.5
$$

GMZ080-GMZ150>470-242100-
OFFSHORE BUOY REPORTS

STATION/POSITION TIME  TEMP    WIND        PRES    WAVE
                       AIR SEA DIR/SP/G            HT/PER
                 (UTC) (F)     (DEG/KT/KT) (MB)    (FT/S)
20 E GALVESTON   1850   83 85  210/  4/  6 1017.8    3/ 8
90 E PT ARANSAS  1850   84 84  100/  6/  8 1017.1    5/ 7
35 NE PT MANSFLD 1850   84     120/ 10/ 12 1015.5    5/ 8
200 E PT ISABEL  1850   84 84  110/ 10/ 12 1016.3    5/ 7
$$



USA.gov is the U.S. government's official web portal to all federal, state and local government web resources and services.